Location: Notre Dame Regional High School Observatory
(37.3056°N, 89.6097°W)
Time: 02:28:53
(UTC-05:00)

Okean 2 Rocket - Visible Passes

Search period start: 23 August 2014 00:00
Search period end: 02 September 2014 00:00
Orbit: 619 x 642 km, 82.5° (Epoch: 22 August)

Date Brightness Start Highest point End Pass type
(mag) Time Alt. Az. Time Alt. Az. Time Alt. Az.
23 Aug 5.9 02:20:39 10° NNE 02:21:50 15° NE 02:21:50 15° NE visible
23 Aug 5.4 03:58:29 10° NNW 03:59:12 14° NW 03:59:12 14° NW visible
24 Aug 5.7 02:41:07 10° N 02:42:20 18° NNE 02:42:20 18° NNE visible
25 Aug 5.7 03:02:03 10° N 03:02:52 15° N 03:02:52 15° N visible
26 Aug 5.9 03:23:25 10° NNW 03:23:26 10° NNW 03:23:26 10° NNW visible
27 Aug 6.3 02:06:29 10° NNE 02:06:39 11° NNE 02:06:39 11° NNE visible
28 Aug 6.2 02:27:15 10° N 02:27:16 10° N 02:27:16 10° N visible
